Home   Weather   Nashua   Past weeks
Flag for USA

Past Weather in Nashua, New Hampshire, USA — Yesterday and Last 2 Weeks

Now
67 °F

Mild.


Feels Like: 67 °F
Forecast: 68 / 60 °F
Wind: 6 mph from North

Location: Nashua / Boire Field

Current Time: Apr 20, 2019 at 12:46:04 am

Latest Report: Apr 19, 2019 at 11:56 pm


Visibility: 10 mi

Pressure: 29.79 "Hg

Humidity: 97%

Dew Point: 66 °F

Location of NashuaLocation

Past Weather in Nashua — Graph

°F

Nashua Temperature Yesterday

Maximum temperature yesterday: 77 °F (at 3:56 pm)
Minimum temperature yesterday: 43 °F (at 4:13 am)
Average temperature yesterday: 60 °F

High & Low Weather Summary for the Past Weeks

 TemperatureHumidityPressure
High77 °F (Apr 19, 3:56 pm)100% (Apr 5, 11:37 pm)30.55 "Hg (Apr 5, 11:37 pm)
Low25 °F (Apr 5, 4:56 am)16% (Apr 5, 2:56 pm)29.22 "Hg (Apr 15, 1:56 pm)
Average47 °F73%30.00 "Hg
* Reported Apr 4 10:56 pm — Apr 19 10:56 pm, Nashua. Weather by CustomWeather, © 2019

Note: Actual official high and low records may vary slightly from our data, if they occured in-between our weather recording intervals... More about our weather records

Advertising

Nashua Weather History for the Previous 24 Hours

Scroll right to see more
 ConditionsComfort  
Time TempWeatherWind HumidityBarometerVisibility
10:56 pm
Fri, Apr 19
68 °FLight rain. Overcast.9 mph90%29.80 "Hg10 mi
9:56 pm69 °FMild.8 mph84%29.82 "Hg10 mi
8:56 pm70 °FPassing clouds.6 mph79%29.82 "Hg10 mi
7:56 pm70 °FMild.9 mph76%29.80 "Hg10 mi
6:56 pm71 °FMore clouds than sun.8 mph73%29.78 "Hg10 mi
5:56 pm73 °FMore clouds than sun.9 mph66%29.76 "Hg10 mi
4:56 pm76 °FBroken clouds.9 mph60%29.75 "Hg10 mi
3:56 pm77 °FPartly sunny.8 mph54%29.75 "Hg10 mi
2:56 pm76 °FMild.6 mph58%29.75 "Hg10 mi
1:56 pm75 °FBroken clouds.7 mph58%29.76 "Hg10 mi
12:56 pm73 °FBroken clouds.13 mph64%29.79 "Hg10 mi
11:56 am72 °FOvercast.8 mph68%29.80 "Hg10 mi
10:56 am70 °FOvercast.8 mph68%29.80 "Hg10 mi
9:56 am68 °FOvercast.7 mph76%29.81 "Hg10 mi
8:56 am67 °FOvercast.6 mph81%29.80 "Hg10 mi
7:56 am64 °FOvercast.5 mph87%29.83 "Hg10 mi
6:56 am60 °FPartly sunny.5 mph96%29.82 "Hg10 mi
5:56 am58 °FClear.3 mph100%29.81 "Hg10 mi
4:56 am44 °FClear.3 mph100%29.81 "Hg7 mi
4:13 am43 °FFog.5 mph100%29.78 "Hg6 mi
4:06 am45 °FFog.5 mph100%29.78 "Hg3 mi
3:25 am45 °FLight rain. Fog.No wind100%29.79 "Hg1 mi
2:56 am44 °FFog.3 mph100%29.83 "Hg0 mi
2:39 am45 °FFog.No wind100%29.81 "Hg1 mi
2:19 am45 °FFog.5 mph100%29.82 "Hg1 mi
2:02 am45 °FFog.No wind100%29.83 "Hg1 mi
1:18 am45 °FFog.No wind100%29.86 "Hg1 mi
12:56 am45 °FFog.No wind100%29.91 "Hg1 mi
12:05 am45 °FFog.No wind100%29.89 "Hg1 mi
Weather by CustomWeather, © 2019

See weather overview